Regional Weather Roundup
Issued by NWS Upton, NY

Current Version | Previous Version | Graphics & Text | Print | Product List | Glossary Off
Versions: 1 2 3 4 5 6 7 8 9 10 11 12 13 14 15 16 17 18 19 20 21 22 23 24 25 26 27 28 29 30 31 32 33 34 35 36

000
ASUS41 KOKX 221205
RWROKX

REGIONAL WEATHER ROUNDUP
NATIONAL WEATHER SERVICE NEW YORK NY
800 AM EDT WED OCT 22 2014

NOTE: "FAIR" INDICATES FEW OR NO CLOUDS BELOW 12,000 FEET WITH NO
SIGNIFICANT WEATHER AND/OR OBSTRUCTIONS TO VISIBILITY.

NYZ071-072-176-178-NJZ106-104-221300-
NEW YORK CITY METRO AREA


CITY           SKY/WX    TMP DP  RH WIND       PRES   REMARKS
CENTRAL PARK   LGT RAIN  54  51  90 NE10G17   29.94S
LAGUARDIA APRT LGT RAIN  55  52  89 N16       29.92R
KENNEDY INTL   TSTM      55  52  88 N17       29.91R
NEWARK/LIBERTY TSTM      55  53  93 N17       29.92R
BRNX BOT. GARD   N/A     54  50  87 NE8       29.93S
TETERBORO      LGT RAIN  55  51  86 N8        29.92S
$$

NYZ177-179-078>081-221300-
LONG ISLAND NEW YORK

CITY           SKY/WX    TMP DP  RH WIND       PRES   REMARKS
FARMINGDALE    RAIN      55  52  89 NE17      29.90R
ISLIP          LGT RAIN  56  51  84 NE18G31   29.89R
SHIRLEY        CLOUDY    56  52  86 N12G24    29.91R
WESTHAMPTON    CLOUDY    56  52  86 NE17G24   29.92R
MONTAUK POINT    N/A     57  53  86 N13G22    29.93R
$$

NYZ052-065-067-221300-
HUDSON VALLEY

CITY           SKY/WX    TMP DP  RH WIND       PRES   REMARKS
WHITE PLAINS   LGT RAIN  53  49  86 N8G17     29.93R
NEWBURGH       CLOUDY    50  50 100 NE12      29.99R
MONTGOMERY     CLOUDY    51  48  89 NE14      29.98R
POUGHKEEPSIE   CLOUDY    52  48  86 N8        29.99R
ALBANY         CLOUDY    50  45  83 N12       30.07R
$$

NJZ001-105-106-008-010-013-015-019>022-104-221300-
NEW JERSEY

CITY           SKY/WX    TMP DP  RH WIND       PRES   REMARKS
NEWARK/LIBERTY TSTM      55  53  93 N17       29.92R
TETERBORO      LGT RAIN  55  51  86 N8        29.92S
CALDWELL       LGT RAIN  52  49  89 VRB5      29.95R
MORRISTOWN     LGT RAIN  55  55 100 NE10G16   29.93R FOG
SOMERVILLE     LGT RAIN  54  51  90 NE12      29.90R
SUSSEX         CLOUDY    53  49  86 NE9       29.97R
ANDOVER          N/A     50  49  96 VRB7      29.96R
TRENTON        RAIN      55  52  89 NE13      29.89R FOG
MILLVILLE      CLOUDY    55  53  93 N7        29.84R
ATLANTIC CITY  MOCLDY    53  52  96 N8        29.84R
WRIGHTSTOWN    LGT RAIN  55  54  94 N10       29.85R
TOMS RIVER     CLOUDY    54  52  94 N7        29.86S
BELMAR         CLOUDY    54  48  82 N15       29.87S
$$

PAZ047>061-062-071-221300-
EASTERN PENNSYLVANIA

CITY           SKY/WX    TMP DP  RH WIND       PRES   REMARKS
PHILADELPHIA   LGT RAIN  57  52  83 NE17G28   29.87R
ALLENTOWN      LGT RAIN  54  50  86 NE9       29.93R
SCRANTON       CLOUDY    51  48  89 NE6       29.98R
$$

CTZ002-004>006-009-010-012-RIZ004-006-007-MAZ004-011-015-221300-
SOUTHERN NEW ENGLAND
 IN CT

CITY           SKY/WX    TMP DP  RH WIND       PRES   REMARKS
BRADLEY INTL   CLOUDY    53  47  79 N13       29.98R
HARTFORD       CLOUDY    53  48  83 N14G21    29.98R
DANBURY        CLOUDY    53  50  90 NE7       29.97R
WTRBRY/OXFORD  NOT AVBL
BRIDGEPORT     CLOUDY    55  50  83 NE18G24   29.93R
MERIDEN        CLOUDY    53  47  79 N13       29.96R
NEW HAVEN      CLOUDY    55  49  80 N16G25    29.93S
CHESTER        CLOUDY    52  50  93 N9        29.95R
GROTON         CLOUDY    54  51  90 N14       29.92R
WILLIMANTIC    CLOUDY    53  48  83 N8        29.96S

 IN RI

CITY           SKY/WX    TMP DP  RH WIND       PRES   REMARKS
PROVIDENCE     DRIZZLE   53  50  89 N14       29.96R
BLOCK ISLAND   CLOUDY    55  52  88 NE15G23   29.92R
WESTERLY       MOCLDY    54  51  90 N9G17     29.93R

 IN MA

CITY           SKY/WX    TMP DP  RH WIND       PRES   REMARKS
BOSTON         CLOUDY    56  54  93 NE22G33   29.99R
WORCESTER      LGT RAIN  47  47 100 NE14G23   29.99S FOG
WESTFIELD      CLOUDY    52  46  80 N12       30.00S
PROVINCETOWN   CLOUDY    57  54  88 NE18G25   29.95S
NANTUCKET      CLOUDY    58  56  93 NE16      29.89R FOG
$$

ANZ330-335-338-340-345-350-353-355-221300-
COASTAL MARINE OBSERVATIONS


STATION/POSITION TIME  SKY/WX   TEMP    WIND        PRES    VSBY  WAVE
                                AIR SEA DIR/SP/G                  HT/PER
                 (UTC)          (F)     (DEG/KT/KT) (MB)    (MI)  (FT/S)
NY HARB ENTRANCE NOT AVBL
4S FIRE IS       1200               63                N/A           5/ 5
20S FIRE ISLAND  1200            61 64   40/ 29/ 37 1008.7          7/ 6
23SW MTP         1200                                 N/A           6/ 5
HUDSON CANYON    1200            67 66  100/ 14/ 17 1007.3          6/ 8
EXECUTION ROCKS  1200            56 63   10/ 19/ 25   N/A
WESTERN LI SOUND 1200            57      30/ 17/ 19   N/A           3/ 5
CENTRAL LI SOUND 1100            56 64   40/ 17/ 23   N/A           3/ 4
EASTERN LI SOUND 1100            56 63   40/ 16/ 21   N/A
ROBBINS REEF     1200            56      10/ 17/ 21 1011.6
$$


>>>>>>>>>>>>>>>>>>>>>>>>>>>> KEY <<<<<<<<<<<<<<<<<<<<<<<<<<<
>                                                          <
>     SKY/WX - SKY CONDITION/PRESENT WEATHER               <
>     TMP    - TEMPERATURE IN FAHRENHEIT                   <
>     DP     - DEWPOINT IN FAHRENHEIT                      <
>     RH     - RELATIVE HUMIDITY IN PERCENT                <
>     WIND   - DIRECTION AND SPEED IN MPH                  <
>     PRES   - MEAN SEA LEVEL PRESSURE IN INCHES OF HG     <
>     WCI    - WIND CHILL INDEX                            <
>     VSB    - VISIBILITY IN MILES                         <
>     HX     - HEAT INDEX                                  <
>     TC     - TEMPERATURE IN CELSIUS                      <
>     VRB    - VARIABLE WIND DIRECTION                     <
>                                                          <
>>>>>>>>>>>>>>>>>>>>>>>>>>>> KEY <<<<<<<<<<<<<<<<<<<<<<<<<<<





USA.gov is the U.S. government's official web portal to all federal, state and local government web resources and services.